OV1-9

导读 | 星芒AI

OV1-9 是美国国家航空航天局(NASA)于1966年发射的一颗小型科学卫星,属于轨道飞行器1系列(OV1)。该卫星主要用于研究地球电离层的特性,特别是高能粒子和辐射环境。其设计简单,质量较轻,搭载了多种探测仪器,以测量宇宙射线和太阳辐射对上层大气的影响。OV1-9 的成功运行为后续小型卫星任务提供了宝贵经验,并推动了空间环境监测技术的发展。

基本信息
目录编号:
2610
目录名称:
OV1-9
国际标识:
1966-111A
轨道中心:
EARTH
卫星名称:
OV1-9
卫星全名:
--
卫星状态:
在轨 (已飞行21552 天)
发射日期:
1966-12-11 UTC
国别 :
美国 (US)
星等 :
--
轨道信息
数据来源 国际轨道数据
星历时间: 2025-12-12T10:52:31+0800
1天前
查看轨道信息
半长轴: 8867.621km
偏心率: 0.2274055
轨道倾角: 99.105°
近地点辐角 303.501°
升交点赤经 232.623°
平近点角 36.858°
近地点: 472.94km
远地点: 4506.032km
周期: 138.507分钟
每日圈数: 10.396618
详细信息
使用方式:
暂无
2D轨道图
3D轨道图
轨道高度分析图
轨道倾角分析图
轨道综合分析图
查看轨道综合分析图